Weather History for South Lake Tahoe, CA

Change the Weather History Date:

Tuesday, November 27, 2012

  Actual Average Record
Temperature  
Mean Temperature 38 °F 33 °F  
Max Temperature 54 °F 46 °F 63 °F (2011)
Min Temperature 22 °F 19 °F 0 °F (1994)
Degree Days  
Heating Degree Days 27 32  
Month to date heating degree days 712 762  
Since 1 July heating degree days 1690 1994  
Cooling Degree Days 0 0  
Month to date cooling degree days 0 0  
Year to date cooling degree days 30 31  
Moisture  
Dew Point 22 °F    
Average Humidity 54    
Maximum Humidity 81    
Minimum Humidity 26    
Precipitation  
Precipitation 0.00 in - 1.22 in (2004)
Month to date precipitation 1.60  
Year to date precipitation 13.48  
Sea Level Pressure  
Sea Level Pressure 30.15 in    
Wind  
Wind Speed 2 mph (SSW)    
Max Wind Speed 16 mph    
Max Gust Speed 23 mph    
Visibility 10 miles    
Events      
T = Trace of Precipitation, MM = Missing Value Source: NWS Daily Summary

Daily Weather History Graph

Daily Weather History Graph

Search for Another Location

Airport:

Trip Planner

Search our weather history database for the weather conditions in past years. The results will help you decide how hot, cold, wet, or windy it might be!

Date:

Astronomy

Nov. 27, 2012 Rise Set
Actual Time 6:56 AM PST 4:39 PM PST
Civil Twilight 6:26 AM PST 5:08 PM PST
Nautical Twilight 5:54 AM PST 5:41 PM PST
Astronomical Twilight 5:22 AM PST 6:13 PM PST
Moon 4:14 PM PST 6:05 AM PST
Length of Visible Light 10h 41m
Length of Day
9h 43m
Waxing Gibbous, 99% of the Moon is Illuminated
Nov 27
Waxing Gibbous
Nov 28
Full
Dec 6
Last Quarter
Dec 13
New
Dec 19
First Quarter

Hourly Weather History & Observations

Time (PST) Temp. Windchill Dew Point Humidity Pressure Visibility Wind Dir Wind Speed Gust Speed Precip Events Conditions
12:53 AM 24.1 °F 18.2 °F 18.0 °F 77% 30.15 in 9.0 mi South 4.6 mph - N/A   Clear
1:53 AM 24.1 °F - 17.1 °F 75% 30.16 in 10.0 mi Calm Calm - N/A   Clear
2:53 AM 23.0 °F - 17.1 °F 78% 30.16 in 10.0 mi Calm Calm - N/A   Clear
3:53 AM 23.0 °F - 16.0 °F 74% 30.17 in 10.0 mi Calm Calm - N/A   Clear
4:53 AM 21.9 °F - 16.0 °F 78% 30.20 in 10.0 mi Calm Calm - N/A   Clear
5:53 AM 23.0 °F - 17.1 °F 78% 30.22 in 10.0 mi Calm Calm - N/A   Clear
6:53 AM 24.1 °F - 18.0 °F 77% 30.24 in 10.0 mi Calm Calm - N/A   Clear
7:53 AM 27.0 °F - 19.0 °F 72% 30.25 in 10.0 mi Calm Calm - N/A   Clear
8:53 AM 32.0 °F - 23.0 °F 69% 30.23 in 10.0 mi Calm Calm - N/A   Clear
9:53 AM 37.0 °F - 26.1 °F 65% 30.21 in 10.0 mi Calm Calm - N/A   Clear
10:53 AM 46.9 °F - 32.0 °F 56% 30.17 in 10.0 mi Calm Calm - N/A   Clear
11:53 AM 48.9 °F - 33.1 °F 54% 30.15 in 10.0 mi Calm Calm - N/A   Clear
12:53 PM 54.0 °F - 19.0 °F 25% 30.10 in 10.0 mi SSW 10.4 mph - N/A   Clear
1:53 PM 53.1 °F - 19.9 °F 27% 30.09 in 10.0 mi Variable 4.6 mph - N/A   Clear
2:53 PM 52.0 °F - 21.9 °F 31% 30.09 in 10.0 mi SSW 8.1 mph - N/A   Clear
3:53 PM 51.1 °F - 24.1 °F 35% 30.10 in 10.0 mi South 11.5 mph - N/A   Scattered Clouds
4:53 PM 48.0 °F - 25.0 °F 41% 30.12 in 10.0 mi South 5.8 mph - N/A   Clear
5:53 PM 44.1 °F - 26.1 °F 49% 30.12 in 10.0 mi Calm Calm - N/A   Clear
6:53 PM 42.1 °F - 26.1 °F 53% 30.13 in 10.0 mi Calm Calm - N/A   Clear
7:53 PM 37.9 °F - 25.0 °F 60% 30.13 in 10.0 mi Calm Calm - N/A   Clear
8:53 PM 34.0 °F - 25.0 °F 70% 30.12 in 10.0 mi Calm Calm - N/A   Clear
9:53 PM 30.9 °F - 23.0 °F 72% 30.12 in 10.0 mi Calm Calm - N/A   Clear
10:53 PM 32.0 °F - 21.9 °F 66% 30.08 in 10.0 mi Calm Calm - N/A   Clear
11:53 PM 44.1 °F 38.6 °F 21.0 °F 40% 30.02 in 10.0 mi South 10.4 mph 21.9 mph N/A   Clear